Regional Weather Roundup
Issued by NWS

Home | Current Version | Previous Version | Graphics & Text | Print | Product List | Glossary On
Versions: 1 2 3 4 5 6 7 8 9 10 11 12 13 14 15 16 17 18 19 20 21 22 23 24 25 26 27 28 29 30 31 32 33 34 35 36 37 38 39 40 41 42 43 44 45 46 47 48 49 50
000
ASUS43 KDMX 180507
RWRIA

WEATHER ROUNDUP FOR IOWA
NATIONAL WEATHER SERVICE DES MOINES IA
1100 PM CST WED DEC 17 2014

NOTE: "FAIR" INDICATES FEW OR NO CLOUDS BELOW 12,000 FEET WITH NO
SIGNIFICANT WEATHER AND/OR OBSTRUCTIONS TO VISIBILITY.

* - THESE STATIONS ARE NOT NWS STATIONS...THUS NOT UNDER NWS
QUALITY CONTROL.  THEY ALSO DO NOT REPORT WEATHER SUCH
AS PRECIPITATION OR FOG.

IAZ001>003-012>014-020>022-031>034-043>046-180600-
   NORTHWEST IOWA

CITY           SKY/WX    TMP DP  RH WIND       PRES   REMARKS
CARROLL *      CLOUDY    21  18  86 E6        30.27S WCI  14
CHEROKEE *     CLOUDY    21  19  93 E6        30.27F WCI  14
DENISON *      CLOUDY    25  19  80 E8        30.25S WCI  16
LE MARS *      CLOUDY    19  18  93 CALM      30.28S
ORANGE CITY *  CLOUDY    19  16  86 E3        30.25F
SHELDON *      PTCLDY    14  12  92 E3        30.26S
SIOUX CITY     CLOUDY    25  18  74 SE5       30.28R WCI  19
SPENCER        PTCLDY    13   9  84 E7        30.27F WCI   3
STORM LAKE *   MOCLDY    18  16  93 E6        30.26F WCI   9
$$

IAZ055>058-069>071-079>083-090>094-180600-
   SOUTHWEST IOWA

CITY           SKY/WX    TMP DP  RH WIND       PRES   REMARKS
ATLANTIC *     CLOUDY    25  19  80 E6        30.27S WCI  18
AUDUBON *      CLOUDY    25  16  68 E3        30.27R
CLARINDA *     CLOUDY    28  21  74 E3        30.28F
COUNCIL BLFS * CLOUDY    27  21  80 E3        30.25S
CRESTON *      CLOUDY    25  18  74 E7        30.26F WCI  17
HARLAN  *      CLOUDY    25  23  93 SE6       30.31R WCI  18
LAMONI         CLOUDY    27  18  69 E5        30.27R WCI  22
RED OAK *      CLOUDY    28  21  74 E8        30.27S WCI  20
SHENANDOAH *   CLOUDY    28  23  80 E3        30.28S
$$

IAZ047>049-059>061-072>074-084-180600-
   CENTRAL IOWA

CITY           SKY/WX    TMP DP  RH WIND       PRES   REMARKS
AMES           PTCLDY    19  15  84 CALM      30.28F
ANKENY *       CLEAR     19  16  86 CALM      30.30S
CHARITON *     CLOUDY    25  18  74 NE6       30.28S WCI  18
DES MOINES     MOCLDY    23  16  74 NE3       30.29F
GRINNELL*      MOCLDY    16  14  93 NE5       30.29S WCI   9
KNOXVILLE *    CLEAR     21  16  79 NE5       30.27F WCI  15
MARSHALLTOWN   PTCLDY    15  11  83 N5        30.28F WCI   8
PELLA *        MOCLDY    20  17  89 CALM      30.30F
PERRY *          N/A     21  19  93 E3        30.29R
$$

IAZ004>006-015-016-023>025-035-036-180600-
   NORTH CENTRAL IOWA

CITY           SKY/WX    TMP DP  RH WIND       PRES   REMARKS
ALGONA *       CLEAR     14  12  92 CALM      30.30S
CLARION *      CLEAR     12  12 100 NE8       30.29F WCI   1
ESTHERVILLE    PTCLDY    10   7  87 CALM      30.28S
FORT DODGE *   CLEAR     16  10  79 CALM      30.29S
MASON CITY     CLOUDY    17  12  80 CALM      30.31R
FOREST CITY *  CLOUDY    18  12  79 CALM      30.29S
IOWA FALLS *     N/A     16  14  93 N3        30.29F
$$

IAZ007>011-017>019-026>030-037>042-050>054-066-180600-
   NORTHEAST IOWA

CITY           SKY/WX    TMP DP  RH WIND       PRES   REMARKS
CEDAR RAPIDS   CLEAR     15  12  88 NW3       30.29S
CHARLES CITY * CLOUDY    18  14  86 CALM      30.31S
CLINTON *      PTCLDY    16  12  86 NW3       30.33S
DECORAH *      CLOUDY    16  14  93 CALM      30.30R
DUBUQUE        CLEAR     16  13  88 CALM      30.29R
MONTICELLO *   CLEAR     18  16  93 CALM      30.31S
OELWEIN *      CLEAR     16  14  93 NW3       30.31S
WATERLOO       PTCLDY    13  11  92 CALM      30.31F
$$

IAZ064-065-067-068-078-180600-
   EAST CENTRAL IOWA

CITY           SKY/WX    TMP DP  RH WIND       PRES   REMARKS
DAVENPORT      PTCLDY    17  12  80 N3        30.30F
IOWA CITY      CLEAR     16  13  88 W5        30.33R WCI   9
MT. PLEASANT * MOCLDY    19  16  86 N6        30.30F WCI  11
MUSCATINE *    CLEAR     19  16  86 CALM      30.33S
QUAD CITIES    PTCLDY    18  15  88 CALM      30.31R
$$

IAZ062-063-075>077-085>089-095>099-180600-
   SOUTHEAST IOWA

CITY           SKY/WX    TMP DP  RH WIND       PRES   REMARKS
BURLINGTON     MOCLDY    21  16  81 N3        30.29F
FAIRFIELD *    CLEAR     18  14  86 NE8       30.29F WCI   7
FORT MADISON * CLEAR     23  19  86 N3        30.30F
KEOKUK *       CLEAR     23  19  86 CALM      30.30S
OSKALOOSA *      N/A     18  16  93 NE3       30.29F
CENTERVILLE *  CLOUDY    25  19  80 E3        30.30R
OTTUMWA        MOCLDY    21  15  78 NE5       30.29F WCI  15
WASHINGTON *   CLEAR     19  19 100 N6        30.31S WCI  11
$$

ABBREVIATIONS USED IN REMARKS
   TC - TEMPERATURES IN CELSIUS
  WCI - WIND CHILL INDEX
   HX - HEAT INDEX
  VSB - VISIBILITY
$$



USA.gov is the U.S. government's official web portal to all federal, state and local government web resources and services.